• In Belarus
  • List of Countries
  • For 7 days
  • Water Temperature
  • Satellite Maps
  • Weather Map
  • Weather Widgets
  • user-avatar
    Login

    Hourly Weather Karibib

    Today, 21 July, Sunday

    Time Temperature Precipitation Wind Pressure Humidity
    00:00 +12°C° 0 mm 1 mps 664 mmHg 43%
    01:00 +11°C° 0 mm 1 mps 664 mmHg 42%
    02:00 +10°C° 0 mm 2 mps 664 mmHg 36%
    03:00 +12°C° 0 mm 2 mps 665 mmHg 30%
    04:00 +11°C° 0 mm 3 mps 665 mmHg 24%
    05:00 +11°C° 0 mm 3 mps 665 mmHg 22%
    06:00 +11°C° 0 mm 3 mps 665 mmHg 19%
    07:00 +12°C° 0 mm 4 mps 666 mmHg 17%
    08:00 +15°C° 0 mm 4 mps 667 mmHg 14%
    09:00 +20°C° 0 mm 4 mps 668 mmHg 12%
    10:00 +25°C° 0 mm 4 mps 669 mmHg 9%
    11:00 +26°C° 0 mm 4 mps 669 mmHg 8%
    12:00 +28°C° 0 mm 4 mps 669 mmHg 7%
    13:00 +30°C° 0 mm 4 mps 668 mmHg 5%
    14:00 +30°C° 0 mm 4 mps 668 mmHg 5%
    15:00 +30°C° 0 mm 3 mps 668 mmHg 5%
    16:00 +30°C° 0 mm 3 mps 668 mmHg 5%
    17:00 +26°C° 0 mm 3 mps 667 mmHg 13%
    18:00 +20°C° 0 mm 2 mps 666 mmHg 20%
    19:00 +15°C° 0 mm 2 mps 665 mmHg 28%
    20:00 +14°C° 0 mm 2 mps 665 mmHg 28%
    21:00 +14°C° 0 mm 2 mps 665 mmHg 27%
    22:00 +13°C° 0 mm 2 mps 665 mmHg 26%
    23:00 +12°C° 0 mm 2 mps 665 mmHg 25%

    Tomorrow, 22 July, Monday

    Time Temperature Precipitation Wind Pressure Humidity
    00:00 +12°C° 0 mm 2 mps 665 mmHg 24%
    01:00 +12°C° 0 mm 2 mps 664 mmHg 22%
    02:00 +12°C° 0 mm 2 mps 665 mmHg 22%
    03:00 +11°C° 0 mm 3 mps 665 mmHg 21%
    04:00 +10°C° 0 mm 3 mps 665 mmHg 21%
    05:00 +11°C° 0 mm 3 mps 665 mmHg 19%
    06:00 +11°C° 0 mm 3 mps 665 mmHg 18%
    07:00 +11°C° 0 mm 3 mps 665 mmHg 16%
    08:00 +15°C° 0 mm 4 mps 666 mmHg 13%
    09:00 +20°C° 0 mm 4 mps 668 mmHg 10%
    10:00 +25°C° 0 mm 4 mps 669 mmHg 7%
    11:00 +27°C° 0 mm 4 mps 668 mmHg 7%
    12:00 +28°C° 0 mm 4 mps 668 mmHg 6%
    13:00 +30°C° 0 mm 5 mps 667 mmHg 5%
    14:00 +30°C° 0 mm 5 mps 667 mmHg 5%
    15:00 +30°C° 0 mm 5 mps 667 mmHg 5%
    16:00 +30°C° 0 mm 5 mps 666 mmHg 5%
    17:00 +25°C° 0 mm 4 mps 665 mmHg 19%
    18:00 +19°C° 0 mm 3 mps 664 mmHg 32%
    19:00 +14°C° 0 mm 2 mps 663 mmHg 45%
    20:00 +13°C° 0 mm 1 mps 663 mmHg 45%
    21:00 +12°C° 0 mm 1 mps 663 mmHg 45%
    22:00 +12°C° 0 mm 1 mps 664 mmHg 44%
    23:00 +12°C° 0 mm 2 mps 663 mmHg 38%

    Day after tomorrow, 23 July, Tuesday

    Time Temperature Precipitation Wind Pressure Humidity
    00:00 +12°C° 0 mm 2 mps 663 mmHg 32%
    01:00 +12°C° 0 mm 2 mps 663 mmHg 27%
    02:00 +10°C° 0 mm 2 mps 662 mmHg 31%
    03:00 +10°C° 0 mm 1 mps 662 mmHg 36%
    04:00 +9°C° 0 mm 1 mps 662 mmHg 40%
    05:00 +9°C° 0 mm 1 mps 662 mmHg 36%
    06:00 +8°C° 0 mm 0 mps 663 mmHg 32%
    07:00 +8°C° 0 mm 0 mps 663 mmHg 28%
    08:00 +12°C° 0 mm 0 mps 665 mmHg 23%
    09:00 +19°C° 0 mm 1 mps 666 mmHg 18%
    10:00 +23°C° 0 mm 1 mps 668 mmHg 13%
    11:00 +24°C° 0 mm 2 mps 668 mmHg 12%
    12:00 +26°C° 0 mm 3 mps 667 mmHg 11%
    13:00 +27°C° 0 mm 4 mps 667 mmHg 10%
    14:00 +27°C° 0 mm 5 mps 667 mmHg 11%
    15:00 +26°C° 0 mm 5 mps 666 mmHg 13%
    16:00 +26°C° 0 mm 6 mps 666 mmHg 14%
    17:00 +21°C° 0 mm 5 mps 666 mmHg 23%
    18:00 +17°C° 0 mm 4 mps 665 mmHg 32%
    19:00 +12°C° 0 mm 3 mps 664 mmHg 42%
    20:00 +10°C° 0 mm 2 mps 664 mmHg 50%
    21:00 +10°C° 0 mm 1 mps 664 mmHg 58%
    22:00 +8°C° 0 mm 1 mps 664 mmHg 66%
    23:00 +8°C° 0 mm 1 mps 663 mmHg 65%

    24 July, Wednesday

    Time Temperature Precipitation Wind Pressure Humidity
    00:00 +8°C° 0 mm 1 mps 663 mmHg 64%
    01:00 +8°C° 0 mm 1 mps 662 mmHg 63%
    02:00 +9°C° 0 mm 1 mps 662 mmHg 59%
    03:00 +8°C° 0 mm 2 mps 662 mmHg 56%
    04:00 +8°C° 0 mm 2 mps 662 mmHg 52%
    05:00 +8°C° 0 mm 2 mps 662 mmHg 48%
    06:00 +10°C° 0 mm 1 mps 662 mmHg 43%
    07:00 +10°C° 0 mm 1 mps 662 mmHg 39%
    08:00 +15°C° 0 mm 1 mps 664 mmHg 30%
    09:00 +20°C° 0 mm 1 mps 665 mmHg 22%
    10:00 +25°C° 0 mm 1 mps 667 mmHg 13%
    11:00 +27°C° 0 mm 1 mps 667 mmHg 12%
    12:00 +28°C° 0 mm 1 mps 666 mmHg 10%
    13:00 +30°C° 0 mm 1 mps 666 mmHg 8%
    14:00 +30°C° 0 mm 2 mps 666 mmHg 8%
    15:00 +30°C° 0 mm 3 mps 666 mmHg 8%
    16:00 +30°C° 0 mm 3 mps 666 mmHg 8%
    17:00 +25°C° 0 mm 3 mps 665 mmHg 11%
    18:00 +20°C° 0 mm 3 mps 664 mmHg 14%
    19:00 +15°C° 0 mm 2 mps 663 mmHg 17%
    20:00 +15°C° 0 mm 2 mps 664 mmHg 19%
    21:00 +14°C° 0 mm 1 mps 664 mmHg 21%
    22:00 +13°C° 0 mm 1 mps 664 mmHg 22%
    23:00 +14°C° 0 mm 2 mps 664 mmHg 21%

    25 July, Thursday

    Time Temperature Precipitation Wind Pressure Humidity
    00:00 +14°C° 0 mm 2 mps 664 mmHg 21%
    01:00 +14°C° 0 mm 3 mps 664 mmHg 20%
    02:00 +13°C° 0 mm 4 mps 664 mmHg 20%
    03:00 +13°C° 0 mm 4 mps 664 mmHg 21%
    04:00 +13°C° 0 mm 5 mps 664 mmHg 22%
    05:00 +13°C° 0 mm 5 mps 664 mmHg 23%
    06:00 +13°C° 0 mm 4 mps 665 mmHg 23%
    07:00 +12°C° 0 mm 4 mps 665 mmHg 24%
    08:00 +17°C° 0 mm 4 mps 666 mmHg 20%
    09:00 +21°C° 0 mm 5 mps 667 mmHg 16%
    10:00 +26°C° 0 mm 5 mps 668 mmHg 12%
    11:00 +28°C° 0 mm 4 mps 668 mmHg 11%
    12:00 +30°C° 0 mm 3 mps 668 mmHg 10%
    13:00 +31°C° 0 mm 3 mps 668 mmHg 9%
    14:00 +31°C° 0 mm 3 mps 668 mmHg 9%
    15:00 +31°C° 0 mm 3 mps 667 mmHg 9%
    16:00 +31°C° 0 mm 3 mps 667 mmHg 9%
    17:00 +27°C° 0 mm 3 mps 666 mmHg 13%
    18:00 +22°C° 0 mm 3 mps 666 mmHg 16%
    19:00 +18°C° 0 mm 2 mps 665 mmHg 20%
    20:00 +17°C° 0 mm 2 mps 665 mmHg 24%
    21:00 +16°C° 0 mm 2 mps 665 mmHg 27%
    22:00 +15°C° 0 mm 1 mps 665 mmHg 30%
    23:00 +15°C° 0 mm 2 mps 665 mmHg 29%

    26 July, Friday

    Time Temperature Precipitation Wind Pressure Humidity
    00:00 +15°C° 0 mm 2 mps 665 mmHg 27%
    01:00 +15°C° 0 mm 2 mps 665 mmHg 26%
    02:00 +14°C° 0 mm 3 mps 665 mmHg 24%
    03:00 +14°C° 0 mm 3 mps 665 mmHg 23%
    04:00 +15°C° 0 mm 4 mps 665 mmHg 22%
    05:00 +15°C° 0 mm 4 mps 666 mmHg 22%
    06:00 +15°C° 0 mm 4 mps 666 mmHg 21%
    07:00 +15°C° 0 mm 5 mps 667 mmHg 21%
    08:00 +19°C° 0 mm 5 mps 667 mmHg 17%
    09:00 +23°C° 0 mm 5 mps 668 mmHg 13%
    10:00 +28°C° 0 mm 5 mps 669 mmHg 10%
    11:00 +29°C° 0 mm 5 mps 669 mmHg 9%
    12:00 +32°C° 0 mm 4 mps 668 mmHg 8%
    13:00 +33°C° 0 mm 3 mps 668 mmHg 8%
    14:00 +33°C° 0 mm 3 mps 668 mmHg 8%
    15:00 +33°C° 0 mm 3 mps 667 mmHg 8%
    16:00 +33°C° 0 mm 3 mps 667 mmHg 8%
    17:00 +28°C° 0 mm 3 mps 666 mmHg 11%
    18:00 +24°C° 0 mm 2 mps 666 mmHg 14%
    19:00 +19°C° 0 mm 2 mps 665 mmHg 17%
    20:00 +18°C° 0 mm 2 mps 665 mmHg 24%
    21:00 +16°C° 0 mm 1 mps 664 mmHg 30%
    22:00 +14°C° 0 mm 1 mps 664 mmHg 37%
    23:00 +15°C° 0 mm 1 mps 664 mmHg 30%
    Show more